Al Udeid, Qatar

12:42 AM AST on February 07, 2016 (GMT +0300)
Al Udeid

Weather History for WKQIR - December, 2013

Change the Weather History Date:

Wednesday, December 18, 2013

  Actual Average Record
Temperature  
Mean Temperature 63 °F -  
Max Temperature 70 °F - - ()
Min Temperature 56 °F - - ()
Degree Days  
Heating Degree Days 2    
Growing Degree Days 13 (Base 50)    
Moisture  
Dew Point 52 °F    
Average Humidity 69    
Maximum Humidity 86    
Minimum Humidity 51    
Precipitation  
Precipitation 0.00 in - - ()
Sea Level Pressure  
Sea Level Pressure 30.14 in    
Wind  
Wind Speed 10 mph ()    
Max Wind Speed 15 mph    
Max Gust Speed -    
Visibility 6.2 miles    
Events      
T = Trace of Precipitation, MM = Missing Value Source: Averaged Metar Reports

Daily Weather History Graph

Daily Weather History Graph

Search for Another Location

Airport or City:

Trip Planner

Search our weather history database for the weather conditions in past years. The results will help you decide how hot, cold, wet, or windy it might be!

Date:

Astronomy

Dec. 18, 2013 Rise Set
Actual Time 6:14 AM AST 4:48 PM AST
Civil Twilight 5:49 AM AST 5:13 PM AST
Nautical Twilight 5:20 AM AST 5:42 PM AST
Astronomical Twilight 4:52 AM AST 6:10 PM AST
Moon 5:52 PM AST (12/18) 6:43 AM AST (12/18)
Length of Visible Light 11h 24m
Length of Day
10h 34m
Full, 99% of the Moon is Illuminated
Dec 18
Full
Dec 25
Last Quarter
Jan 1
New
Jan 8
First Quarter
Jan 16
Full

Hourly Weather History & Observations

Time (AST) Temp. Dew Point Humidity Pressure Visibility Wind Dir Wind Speed Gust Speed Precip Events Conditions
12:58 AM 57.6 °F 49.8 °F 75% 30.16 in 6.2 mi NW 12.7 mph - N/A   Clear
1:58 AM 57.4 °F 49.8 °F 76% 30.16 in 6.2 mi NW 11.5 mph - N/A   Clear
2:58 AM 57.2 °F 50.2 °F 77% 30.15 in 6.2 mi NW 11.5 mph - N/A   Clear
3:58 AM 56.7 °F 50.4 °F 79% 30.15 in 6.2 mi NW 10.4 mph - N/A   Clear
4:58 AM 56.3 °F 50.5 °F 81% 30.15 in 6.2 mi NW 11.5 mph - N/A   Clear
5:58 AM 56.1 °F 50.7 °F 82% 30.16 in 6.2 mi NW 11.5 mph - N/A   Clear
6:58 AM 56.7 °F 50.2 °F 79% 30.18 in 6.2 mi NW 10.4 mph - N/A   Clear
7:58 AM 59.0 °F 50.7 °F 74% 30.20 in 6.2 mi NW 11.5 mph - N/A   Clear
8:58 AM 62.6 °F 51.6 °F 67% 30.21 in 6.2 mi NW 15.0 mph - N/A   Clear
9:58 AM 65.8 °F 52.0 °F 61% 30.19 in 6.2 mi NW 11.5 mph - N/A   Clear
10:58 AM 68.0 °F 52.3 °F 57% 30.17 in 6.2 mi NNW 15.0 mph - N/A   Clear
11:58 AM 69.4 °F 51.6 °F 53% 30.14 in 6.2 mi NNW 13.8 mph - N/A   Clear
12:58 PM 70.0 °F 51.1 °F 51% 30.11 in 6.2 mi NNW 11.5 mph - N/A   Clear
1:58 PM 70.3 °F 52.7 °F 53% 30.10 in 6.2 mi NNW 13.8 mph - N/A   Clear
2:58 PM 70.3 °F 53.2 °F 55% 30.09 in 6.2 mi NNW 15.0 mph - N/A   Clear
3:58 PM 68.9 °F 52.5 °F 56% 30.10 in 6.2 mi NNW 15.0 mph - N/A   Clear
4:58 PM 66.6 °F 53.1 °F 62% 30.11 in 6.2 mi NNW 12.7 mph - N/A   Clear
5:58 PM 64.9 °F 52.7 °F 64% 30.12 in 6.2 mi NNW 9.2 mph - N/A   Clear
6:58 PM 63.5 °F 53.6 °F 70% 30.13 in 6.2 mi NNW 9.2 mph - N/A   Clear
7:58 PM 62.1 °F 53.4 °F 73% 30.14 in 6.2 mi NNW 8.1 mph - N/A   Clear
8:58 PM 61.2 °F 52.9 °F 74% 30.15 in 6.2 mi NW 6.9 mph - N/A   Clear
9:58 PM 60.3 °F 52.9 °F 77% 30.14 in 6.2 mi NW 4.6 mph - N/A   Clear
10:58 PM 58.3 °F 52.7 °F 82% 30.13 in 6.2 mi WNW 5.8 mph - N/A   Clear
11:58 PM 57.2 °F 53.1 °F 86% 30.13 in 6.2 mi WNW 3.5 mph - N/A   Clear